Regional Weather Roundup
Issued by NWS

Home | Current Version | Previous Version | Text Only | Print | Product List | Glossary On
Versions: 1 2 3 4 5 6 7 8 9 10 11 12 13 14 15 16 17 18 19 20 21 22 23 24 25 26 27 28 29 30 31 32 33 34 35 36 37 38 39 40 41 42 43 44 45 46 47 48 49 50
000
ASUS42 KFFC 291303
RWRGA
WEATHER ROUNDUP FOR GEORGIA
NATIONAL WEATHER SERVICE PEACHTREE CITY GA
900 AM EDT MON AUG 29 2016

NOTE: "FAIR" INDICATES FEW OR NO CLOUDS BELOW 12,000 FEET WITH NO
SIGNIFICANT WEATHER AND/OR OBSTRUCTIONS TO VISIBILITY.

* = USE WITH CAUTION. THE STATIONS MARKED WITH AN ASTERISK MAY NOT
REPORT WEATHER SUCH AS PRECIPITATION, FOG, OR THUNDER AND ARE NOT
QUALITY CONTROLLED BY NWS.

THE REMARK "TC" DENOTES TEMPERATURE READING IN DEGREES CELSIUS.

GAZ001>058-291400-
NORTH GEORGIA

CITY           SKY/WX    TMP DP  RH WIND       PRES   REMARKS
ATLANTA        MOSUNNY   77  69  76 NE9       30.15S
ATHENS         CLOUDY    76  69  79 NE3       30.16R
CHAMBLEE       SUNNY     77  65  66 VRB3      30.16R
PEACHTREE CITY SUNNY     76  70  82 VRB3      30.15R
ROME           SUNNY     75  68  78 NE3       30.15R
WEST ATLANTA   SUNNY     76  67  73 NE6       30.15R
GAINESVILLE    SUNNY     76  63  64 NE8       30.20R
CARTERSVILLE   SUNNY     77  68  73 VRB3      30.17R


CITY           SKY/WX    TMP DP  RH WIND       PRES   REMARKS
DALTON*        MOSUNNY   70  70 100 CALM      30.17S
LAWRENCEVILLE* SUNNY     73  66  78 NE6       30.16R
MARIETTA       MOSUNNY   76  66  70 VRB2      30.16S
KENNESAW*      SUNNY     73  64  73 E5        30.14S
CANTON*        SUNNY    N/A N/A N/A CALM      30.20R
BLAIRSVILLE*   FOG      N/A N/A N/A MISG      30.23S VSB 1/2
$$

GAZ059>098-102>109-291400-
CENTRAL GEORGIA

CITY           SKY/WX    TMP DP  RH WIND       PRES   REMARKS
AUGUSTA-BUSH   CLOUDY    79  71  76 NE6       30.11S
AUGUSTA-DANIEL PTSUNNY   80  71  74 NE8       30.13R
COLUMBUS       SUNNY     78  71  79 E8        30.09R
MACON          SUNNY     79  72  79 NE7       30.11R
ROBINS AFB     SUNNY     79  73  82 VRB6      30.09S


CITY           SKY/WX    TMP DP  RH WIND       PRES   REMARKS
LAGRANGE*      SUNNY     79  75  89 E7        30.12S
MILLEDGEVILLE* CLOUDY    77  73  88 N3        30.13R
$$

GAZ099>101-110>166-291400-
SOUTH GEORGIA

CITY           SKY/WX    TMP DP  RH WIND       PRES   REMARKS
SAVANNAH       MOSUNNY   78  74  87 NE7       30.07S
VALDOSTA       SUNNY     79  75  87 NE7       30.04R
ALMA           MOSUNNY   78  74  87 VRB3      30.06S
ST SIMONS      MOSUNNY   85  77  77 E9        30.03S HX  95
FT STEWART     CLOUDY    76  74  94 N3        30.04S
ALBANY         SUNNY     79  72  79 NE8       30.08S
HUNTER AFB     CLOUDY    77  77 100 NE6       30.04S
MOODY AFB      SUNNY     78  73  85 NE7       30.04R
BRUNSWICK      MOSUNNY   79  79 100 N5        30.05S


CITY           SKY/WX    TMP DP  RH WIND       PRES   REMARKS
BAINBRIDGE*    SUNNY     79  73  83 CALM      30.05R
MOULTRIE*      SUNNY     77  72  83 NE6       30.06S
VIDALIA*       CLOUDY    77  77 100 NE8       30.09S
WAYCROSS*        N/A     80  79  98 NE7       30.05S
DOUGLAS*       CLOUDY    77  73  88 NE8       30.07S
$$



USA.gov is the U.S. government's official web portal to all federal, state and local government web resources and services.